This is the latest recevied weather packets stored in our database for station/object OE3MHU-13. If no packets are shown the sender has not sent any weather packets the latest 10 day(s).
| Time | Temp. | Humidity | Pressure | Rain* | Wind** | Luminosity | Snow |
|---|---|---|---|---|---|---|---|
| 1787676041 | 21.67° C | 70% | 1015.4 hPa | 0.25 mm | - | - | - |
| 1787675739 | 21.67° C | 70% | 1015.3 hPa | 0 mm | - | - | - |
| 1787675438 | 21.67° C | 72% | 1015.3 hPa | 0 mm | - | - | - |
| 1787675137 | 21.67° C | 72% | 1015.2 hPa | 0 mm | - | - | - |
| 1787674838 | 21.67° C | 72% | 1015.1 hPa | 0 mm | - | - | - |
| 1787674535 | 21.67° C | 68% | 1015.1 hPa | 0 mm | - | - | - |
| 1787674233 | 21.67° C | 70% | 1015 hPa | 0 mm | - | - | - |
| 1787673931 | 22.22° C | 71% | 1015 hPa | 0 mm | - | - | - |
| 1787673631 | 22.22° C | 68% | 1015 hPa | 0 mm | - | - | - |
| 1787673330 | 22.22° C | 68% | 1015 hPa | 0 mm | - | - | - |
| 1787673029 | 22.78° C | 65% | 1014.8 hPa | 0 mm | - | - | - |
| 1787672729 | 23.33° C | 60% | 1014.8 hPa | 0 mm | - | - | - |
| 1787672429 | 23.33° C | 59% | 1014.8 hPa | 0 mm | - | - | - |
| 1787672132 | 23.89° C | 56% | 1014.7 hPa | 0 mm | - | - | - |
| 1787671829 | 23.89° C | 55% | 1014.6 hPa | 0 mm | - | - | - |
| 1787671523 | 23.89° C | 57% | 1014.6 hPa | 0 mm | - | - | - |
| 1787671220 | 23.89° C | 57% | 1014.4 hPa | 0 mm | - | - | - |
| 1787670911 | 23.89° C | 55% | 1014.6 hPa | 0 mm | - | - | - |
| 1787670605 | 23.89° C | 55% | 1014.6 hPa | 0 mm | - | - | - |
| 1787670299 | 24.44° C | 54% | 1014.3 hPa | 0 mm | - | - | - |
| 1787669993 | 24.44° C | 53% | 1014.3 hPa | 0 mm | - | - | - |
| 1787669690 | 24.44° C | 54% | 1014.3 hPa | 0 mm | - | - | - |
| 1787669382 | 24.44° C | 52% | 1014.2 hPa | 0 mm | - | - | - |
| 1787669076 | 24.44° C | 51% | 1014.2 hPa | 0 mm | - | - | - |
| 1787668769 | 24.44° C | 50% | 1014.1 hPa | 0 mm | - | - | - |
* Rain latest hour (hover to see other rain measurements)
** Current wind speed in m/s (hover to see current wind gust speed)